Regional Weather Roundup
Issued by NWS

Home | Current Version | Previous Version | Graphics & Text | Print | Product List | Glossary On
Versions: 1 2 3 4 5 6 7 8 9 10 11 12 13 14 15 16 17 18 19 20 21 22 23 24 25 26 27 28 29 30 31 32 33 34 35 36 37 38 39 40 41 42 43 44 45 46 47 48 49 50
000
ASUS45 KSLC 171710
RWRUT

UTAH REGIONAL WEATHER ROUNDUP
NATIONAL WEATHER SERVICE SALT LAKE CITY UT
1000 AM MST WED DEC 17 2014

UTZ001>011-023>025-171800-

NORTHERN UTAH

CITY           SKY/WX    TMP DP  RH WIND       PRES   REMARKS
BRIGHAM CITY   CLOUDY    33  29  86 CALM      30.02R
HILL AFB       PTSUNNY   35  32  90 E3        30.00R
LOGAN          SUNNY     32  28  85 SW3       30.01R
OGDEN          SUNNY     35  29  78 CALM      30.00R
PROVO AIRPORT  MOSUNNY   37  27  65 VRB3      30.01R
SALT LAKE CITY MOSUNNY   34  31  88 CALM      30.01R
VERNAL         CLOUDY    23  21  92 CALM      30.06S FOG
WENDOVER       MOSUNNY   25  19  80 CALM      30.03S
HEBER CITY     MOSUNNY   32  25  74 CALM      29.99S
WEST JORDAN    CLOUDY    34  32  93 CALM      30.01R

$$

UTZ012>022-026-027-171800-

SOUTHERN/CENTRAL UTAH

CITY           SKY/WX    TMP DP  RH WIND       PRES   REMARKS
BLANDING       CLOUDY    36  29  75 CALM      30.06S
BRYCE CANYON   LGT SNOW  29  25  85 CALM      29.98R VSB 1
CEDAR CITY     LGT SNOW  32  30  92 CALM      30.00R FOG
DELTA          CLOUDY    32  27  80 CALM      30.00R
MILFORD        CLOUDY    34  29  82 S9        30.00R WCI  27
MOAB/CYNLANDS  CLOUDY    36  33  89 CALM      30.00R
PRICE          CLOUDY    32  22  66 SE3       29.99R
ST GEORGE      CLOUDY    45  34  65 E8        30.06R
KANAB            N/A    N/A N/A N/A CALM      30.07R

$$

REGIONAL REPORTS     COLORADO/ARIZONA

CITY           SKY/WX    TMP DP  RH WIND       PRES   REMARKS
CRAIG, CO      CLOUDY    22  21  96 CALM      30.02R FOG
GRAND JUNCTION LGT SNOW  33  32  96 SE3       30.01S FOG
RIFLE          PTSUNNY   31  27  85 CALM      30.02F
MONTROSE       PTSUNNY   34  29  82 CALM      30.02F
CORTEZ         CLOUDY    34  29  82 CALM      30.01R
PAGE, AZ       LGT RAIN  41  33  73 CALM      30.02R
GRAND CANYON   LGT SNOW  31  29  92 SW5       30.03R VSB 3/4 WCI  26
KINGMAN        CLOUDY    43  37  79 CALM      30.05R
FLAGSTAFF      LGT SNOW  30  28  92 SW10      30.02R FOG     WCI  21

$$

REGIONAL REPORTS    NEVADA/IDAHO/WYOMING

CITY           SKY/WX    TMP DP  RH WIND       PRES   REMARKS
LAS VEGAS, NV  CLOUDY    48  41  76 S8        30.00R
ELY            CLOUDY    30  25  81 N5        29.98R WCI  25
ELKO           FOG       24  22  91 CALM      30.00S VSB 1/4
POCATELLO, ID  MOSUNNY   27  26  96 CALM      30.03R
BURLEY         SUNNY     29  25  85 NE5       29.99R WCI  24
EVANSTON, WY   CLOUDY    27  20  75 CALM      29.98R
ROCK SPRINGS   SUNNY     15  12  88 CALM      30.00R
KEMMERER         N/A     23  19  86 CALM      29.99

$$


USA.gov is the U.S. government's official web portal to all federal, state and local government web resources and services.